FW4785 Weather Reports


Display with metric or nautical units.
time (UTC)temp
F
wind
direction
speed
MPH
gust
MPH
rain 1hr
in
rain 24hr
in
rain mn
in
humidity
%
barometer
mb
20260504110459 57 117 1.0 2.0 0.00 0.00 0.00 94 1014.6
20260504100438 56 117 0.0 1.0 0.00 0.00 0.00 93 1015.1
20260504081839 56 117 0.0 1.0 0.00 0.00 0.00 92 1015.3
20260504081339 56 117 0.0 1.0 0.00 0.00 0.00 92 1015.6
20260504080839 56 117 0.0 2.0 0.00 0.00 0.00 92 1015.8
20260504080338 56 117 0.0 2.0 0.00 0.00 0.00 92 1015.8
20260504070329 57 117 0.0 2.0 0.00 0.00 0.00 91 1016.8
20260504050314 60 117 0.0 0.0 0.00 0.00 0.00 84 1018.2
20260504045312 60 117 0.0 1.0 0.00 0.00 0.00 85 1018.2
20260504044812 60 117 0.0 0.0 0.00 0.00 0.00 84 1018.2
20260504044312 60 117 0.0 0.0 0.00 0.00 0.00 84 1018.2
20260504044039 61 117 0.0 1.0 0.00 0.00 0.00 84 1018.1
20260504043310 61 117 1.0 1.0 0.00 0.00 0.00 84 1018.2
20260504042812 61 117 1.0 1.0 0.00 0.00 0.00 83 1018.1
20260504042537 61 117 1.0 2.0 0.00 0.00 0.00 82 1018.2
20260504041806 62 117 1.0 2.0 0.00 0.00 0.00 81 1018.1
20260504041305 62 117 1.0 3.0 0.00 0.00 0.00 81 1018.2
20260504040804 62 117 2.0 3.0 0.00 0.00 0.00 80 1018.2
20260504040304 62 147 2.0 3.0 0.00 0.00 0.00 79 1018.2
20260504035802 62 127 1.0 3.0 0.00 0.00 0.00 78 1018.1
20260504035301 62 154 1.0 2.0 0.00 0.00 0.00 78 1018.3
20260504034758 62 154 1.0 2.0 0.00 0.00 0.00 78 1018.3
20260504034252 62 154 1.0 3.0 0.00 0.00 0.00 78 1018.2
20260504033746 62 154 1.0 3.0 0.00 0.00 0.00 78 1018.2
20260504033240 62 154 1.0 2.0 0.00 0.00 0.00 78 1018.2
20260504032959 62 154 1.0 3.0 0.00 0.00 0.00 79 1018.3
20260504032231 62 154 1.0 3.0 0.00 0.00 0.00 79 1018.3
20260504031729 62 150 1.0 4.0 0.00 0.00 0.00 79 1018.1
20260504031230 62 159 1.0 4.0 0.00 0.00 0.00 79 1018.1
20260504030729 62 146 1.0 2.0 0.00 0.00 0.00 80 1018.0
20260504030229 62 146 1.0 2.0 0.00 0.00 0.00 81 1018.0
20260504025729 63 146 1.0 2.0 0.00 0.00 0.00 80 1018.0
20260504025230 63 146 2.0 3.0 0.00 0.00 0.00 79 1017.9
20260504024957 63 158 2.0 3.0 0.00 0.00 0.00 78 1018.0
20260504024230 63 150 2.0 3.0 0.00 0.00 0.00 77 1017.9
20260504023730 63 150 2.0 3.0 0.00 0.00 0.00 77 1018.1
20260504023229 63 150 2.0 4.0 0.00 0.00 0.00 77 1018.0
20260504022729 63 148 2.0 4.0 0.00 0.00 0.00 76 1018.1
20260504022229 64 162 2.0 4.0 0.00 0.00 0.00 76 1018.0
20260504021729 64 142 2.0 4.0 0.00 0.00 0.00 76 1017.9
20260504021237 64 144 2.0 4.0 0.00 0.00 0.00 75 1017.9
20260504020733 64 155 2.0 4.0 0.00 0.00 0.00 75 1017.9
20260504020230 65 169 2.0 4.0 0.00 0.00 0.00 75 1017.7
20260504015721 65 144 2.0 4.0 0.00 0.00 0.00 74 1017.7
20260504015221 65 154 1.0 4.0 0.00 0.00 0.00 74 1017.9
20260504014720 66 165 1.0 2.0 0.00 0.00 0.00 73 1017.8
20260504014219 66 140 2.0 3.0 0.00 0.00 0.00 73 1017.7
20260504013720 67 140 2.0 5.0 0.00 0.00 0.00 72 1017.7
20260504013220 67 134 2.0 5.0 0.00 0.00 0.00 70 1017.8
20260504012720 67 140 2.0 5.0 0.00 0.00 0.00 68 1017.7
20260504012218 68 146 2.0 5.0 0.00 0.00 0.00 67 1017.8
20260504011716 68 156 3.0 5.0 0.00 0.00 0.00 66 1017.9
20260504011216 69 148 3.0 6.0 0.00 0.00 0.00 65 1017.8
20260504010716 69 154 3.0 6.0 0.00 0.00 0.00 64 1017.7
20260504010444 69 162 3.0 6.0 0.00 0.00 0.00 63 1017.9
20260504005712 70 167 4.0 7.0 0.00 0.00 0.00 62 1017.8
20260504005439 70 141 5.0 8.0 0.00 0.00 0.00 61 1017.8
20260504004712 71 148 6.0 11.0 0.00 0.00 0.00 60 1017.7
20260504004212 71 139 6.0 11.0 0.00 0.00 0.00 59 1017.9
20260504003712 71 138 7.0 12.0 0.00 0.00 0.00 58 1017.8
20260504003437 72 167 7.0 12.0 0.00 0.00 0.00 57 1017.9
20260504002712 72 188 7.0 12.0 0.00 0.00 0.00 56 1017.7
20260504002212 72 145 7.0 11.0 0.00 0.00 0.00 56 1017.9
20260504001711 73 144 8.0 14.0 0.00 0.00 0.00 56 1017.8
20260504001207 73 146 8.0 14.0 0.00 0.00 0.00 54 1017.8
20260504000707 73 159 8.0 14.0 0.00 0.00 0.00 54 1017.9
20260504000207 74 128 9.0 14.0 0.00 0.00 0.00 54 1017.9
20260503235707 74 112 9.0 17.0 0.00 0.00 0.00 52 1017.7
20260503235207 74 152 9.0 17.0 0.00 0.00 0.00 52 1017.8
20260503234709 74 163 8.0 14.0 0.00 0.00 0.00 53 1017.8
20260503234437 74 190 8.0 14.0 0.00 0.00 0.00 51 1017.7
20260503233709 74 137 9.0 15.0 0.00 0.00 0.00 52 1017.7
20260503233209 74 111 10.0 15.0 0.00 0.00 0.00 51 1017.8
20260503232702 75 144 9.0 15.0 0.00 0.00 0.00 51 1017.8
20260503232203 75 107 9.0 13.0 0.00 0.00 0.00 51 1017.7
20260503231703 75 147 9.0 13.0 0.00 0.00 0.00 52 1017.9
20260503231202 76 122 9.0 12.0 0.00 0.00 0.00 51 1017.9
20260503230928 76 186 9.0 14.0 0.00 0.00 0.00 49 1017.8
20260503230201 76 154 10.0 16.0 0.00 0.00 0.00 49 1017.9
20260503225702 76 150 10.0 17.0 0.00 0.00 0.00 48 1018.0
20260503225201 76 148 9.0 17.0 0.00 0.00 0.00 49 1018.0
20260503224701 76 136 9.0 16.0 0.00 0.00 0.00 48 1018.0
20260503224427 77 121 9.0 16.0 0.00 0.00 0.00 50 1018.0
20260503223940 77 142 9.0 16.0 0.00 0.00 0.00 48 1017.9
20260503223201 77 135 8.0 15.0 0.00 0.00 0.00 48 1018.1
20260503222701 77 150 8.0 15.0 0.00 0.00 0.00 50 1018.1
20260503222200 77 115 9.0 15.0 0.00 0.00 0.00 49 1018.1
20260503221701 77 122 10.0 15.0 0.00 0.00 0.00 46 1018.2
20260503221201 77 122 10.0 15.0 0.00 0.00 0.00 47 1018.1
20260503220701 77 154 10.0 15.0 0.00 0.00 0.00 47 1018.2
20260503220202 78 146 10.0 15.0 0.00 0.00 0.00 47 1018.3
20260503215926 78 128 8.0 16.0 0.00 0.00 0.00 46 1018.6
20260503215910 78 151 10.0 16.0 0.00 0.00 0.00 48 1018.4
20260503214701 78 134 7.0 14.0 0.00 0.00 0.00 46 1018.5
20260503214201 78 150 7.0 13.0 0.00 0.00 0.00 45 1018.6
20260503213927 78 113 9.0 15.0 0.00 0.00 0.00 47 1018.5
20260503213201 78 110 10.0 15.0 0.00 0.00 0.00 46 1018.6
20260503212701 79 121 7.0 16.0 0.00 0.00 0.00 48 1018.6
20260503212434 79 128 6.0 16.0 0.00 0.00 0.00 45 1018.8
20260503211703 79 128 7.0 12.0 0.00 0.00 0.00 45 1018.8
20260503211202 79 150 8.0 13.0 0.00 0.00 0.00 46 1019.0
20260503210703 79 176 8.0 16.0 0.00 0.00 0.00 46 1018.9
20260503210202 79 115 9.0 16.0 0.00 0.00 0.00 45 1018.9
20260503205703 79 136 7.0 16.0 0.00 0.00 0.00 47 1019.0
20260503205202 80 104 6.0 12.0 0.00 0.00 0.00 48 1019.1
20260503204702 79 137 8.0 16.0 0.00 0.00 0.00 46 1019.1
20260503204202 79 130 9.0 16.0 0.00 0.00 0.00 47 1019.4
20260503203928 79 96 8.0 15.0 0.00 0.00 0.00 47 1019.3
20260503203427 79 187 7.0 14.0 0.00 0.00 0.00 49 1019.4
20260503202702 78 134 8.0 14.0 0.00 0.00 0.00 50 1019.5
20260503202202 78 149 8.0 15.0 0.00 0.00 0.00 49 1019.5
20260503201702 78 120 7.0 15.0 0.00 0.00 0.00 49 1019.5
20260503201202 78 111 7.0 15.0 0.00 0.00 0.00 46 1019.5
20260503200703 79 101 9.0 15.0 0.00 0.00 0.00 48 1019.6
20260503200202 79 122 8.0 16.0 0.00 0.00 0.00 49 1019.8
20260503195703 79 131 9.0 16.0 0.00 0.00 0.00 47 1019.8
20260503195431 79 140 9.0 15.0 0.00 0.00 0.00 49 1019.8
20260503194702 79 101 7.0 15.0 0.00 0.00 0.00 48 1019.8
20260503194202 79 144 6.0 13.0 0.00 0.00 0.00 49 1019.9
20260503193936 78 208 7.0 17.0 0.00 0.00 0.00 49 1020.0
20260503193157 78 137 8.0 17.0 0.00 0.00 0.00 50 1020.1
20260503192650 77 63 8.0 13.0 0.00 0.00 0.00 54 1020.1
20260503192145 77 146 7.0 13.0 0.00 0.00 0.00 52 1020.3
20260503191638 77 65 5.0 16.0 0.00 0.00 0.00 50 1020.4
20260503191133 78 124 7.0 16.0 0.00 0.00 0.00 48 1020.5
20260503190631 78 166 10.0 16.0 0.00 0.00 0.00 48 1020.6
20260503190623 79 118 9.0 18.0 0.00 0.00 0.00 47 1020.6
20260503185631 79 135 8.0 18.0 0.00 0.00 0.00 49 1020.6
20260503185131 79 126 11.0 17.0 0.00 0.00 0.00 47 1020.7
20260503184631 80 135 8.0 17.0 0.00 0.00 0.00 47 1020.7
20260503184131 80 70 4.0 14.0 0.00 0.00 0.00 41 1020.8
20260503183631 80 141 5.0 10.0 0.00 0.00 0.00 40 1021.0
20260503183131 80 74 5.0 11.0 0.00 0.00 0.00 44 1020.9
20260503182855 80 71 6.0 14.0 0.00 0.00 0.00 41 1021.0
20260503182131 80 121 5.0 14.0 0.00 0.00 0.00 41 1020.9
20260503181859 80 49 3.0 10.0 0.00 0.00 0.00 44 1021.0
20260503181131 79 44 5.0 20.0 0.00 0.00 0.00 42 1021.1
20260503180631 79 59 5.0 20.0 0.00 0.00 0.00 42 1021.4
20260503180133 79 85 5.0 14.0 0.00 0.00 0.00 41 1021.4
20260503175632 78 123 7.0 13.0 0.00 0.00 0.00 41 1021.7
20260503175132 78 133 7.0 13.0 0.00 0.00 0.00 39 1021.8
20260503174631 79 115 4.0 12.0 0.00 0.00 0.00 41 1021.9
20260503174127 80 36 3.0 8.0 0.00 0.00 0.00 40 1021.9
20260503173625 80 40 3.0 8.0 0.00 0.00 0.00 41 1022.1
20260503173352 79 95 3.0 8.0 0.00 0.00 0.00 38 1022.2
20260503172623 79 71 4.0 11.0 0.00 0.00 0.00 41 1022.2
20260503172123 79 70 7.0 13.0 0.00 0.00 0.00 44 1022.2
20260503171623 79 113 5.0 13.0 0.00 0.00 0.00 40 1022.3
20260503171122 79 144 3.0 11.0 0.00 0.00 0.00 42 1022.3
20260503170623 79 40 5.0 12.0 0.00 0.00 0.00 40 1022.4
20260503170123 78 69 7.0 14.0 0.00 0.00 0.00 46 1022.6
20260503160111 77 40 3.0 10.0 0.00 0.00 0.00 41 1022.8
20260503150608 75 65 3.0 8.0 0.00 0.00 0.00 56 1022.3
20260503150107 75 92 3.0 7.0 0.00 0.00 0.00 56 1022.3
20260503131101 59 5 2.0 3.0 0.00 0.00 0.00 96 1021.6
20260503130602 58 5 2.0 3.0 0.00 0.00 0.00 97 1021.6